Overview Statistics Trail Chart Weather Telemetry Raw packets
 

This is the latest recevied weather packets stored in our database for station/object N6HGA-1. If no packets are shown the sender has not sent any weather packets the latest 10 day(s).

<< 57 58 59 60 61 62 63 >>
Time Temp. Humidity Pressure Rain* Wind** Luminosity Snow
1788280752 25° C 25% - 0 mm - - -
1788280451 25° C 25% - 0 mm - - -
1788280150 24.44° C 25% - 0 mm - - -
1788279850 24.44° C 25% - 0 mm - - -
1788279548 23.89° C 26% - 0 mm - - -
1788279248 23.89° C 26% - 0 mm - - -
1788278948 23.33° C 27% - 0 mm - - -
1788278647 22.78° C 28% - 0 mm - - -
1788278051 21.67° C 30% - 0 mm - - -
1788277746 21.11° C 31% - 0 mm - - -
1788277446 21.11° C 31% - 0 mm - - -
1788277144 20.56° C 32% - 0 mm - - -
1788276840 20° C 32% - 0 mm - - -
1788276539 20° C 36% - 0 mm - - -
1788276237 19.44° C 41% - 0 mm - - -
1788275937 19.44° C 41% - 0 mm - - -
1788275636 18.89° C 42% - 0 mm - - -
1788275334 18.33° C 42% - 0 mm - - -
1788275034 18.33° C 44% - 0 mm - - -
1788274734 18.33° C 43% - 0 mm - - -
1788274430 18.33° C 45% - 0 mm - - -
1788274129 17.78° C 45% - 0 mm - - -
1788273829 17.78° C 45% - 0 mm - - -
1788273529 17.22° C 45% - 0 mm - - -
1788273228 16.67° C 45% - 0 mm - - -

* Rain since midnight (hover to see other rain measurements)
** Current wind speed in m/s (hover to see current wind gust speed)